Tracking 19644 objects as of 25-Apr-2019
HD Live streaming from Space Station
objects crossing your sky now

YUNHAI 2 1

Track YUNHAI 2 1 now!
10-day predictions


NORAD ID: 43909
Int'l Code: 2018-112A
Perigee: 523.2 km
Apogee: 531.7 km
Inclination: 50.0 °
Period: 95.0 minutes
Semi major axis: 6898 km
RCS: Unknown
Launch date: December 29, 2018
Source: People's Republic of China (PRC)
Launch site: Jiuquan Satellite Launch Center, China (JSC)
aabbcc
Your satellite tracking list
Your tracking list is empty




NASA's NSSDC Master Catalog

Two Line Element Set (TLE):
1 43909U 18112A   19115.78873819  .00000954  00000-0  66149-4 0  9994
2 43909  50.0159 333.9753 0006133   8.1025  88.9036 15.15229365 17808
Source of the keplerian elements: AFSPC